Preview of NWS' New Version of Forecast
This preview is not operational and should not be used for support decisions.

Regional Weather Roundup (RWR)

Issued by Gray - Portland, ME (GYX)

                            
297 
ASUS41 KGYX 211705
RWRGYX
WEATHER ROUNDUP FOR MAINE AND NEW HAMPSHIRE
NATIONAL WEATHER SERVICE GRAY ME
100 PM EDT THU JUN 21 2018

MEZ002-005-006-010-012-015-018-020-021-024-026-027-029-211800-
MAINE
  
CITY           SKY/WX    TMP DP  RH WIND       PRES   REMARKS
PORTLAND       CLOUDY    71  55  56 VRB6      29.79S                  
SANFORD        CLOUDY    71  61  70 VRB3      29.80S                  
BAR HARBOR     FAIR      72  48  42 NE8       29.78S                  
WISCASSET      PTSUNNY   71  57  61 SW5       29.79S                  
ROCKLAND       FAIR      68  52  56 E9        29.78S                  
FRYEBURG       PTSUNNY   73  50  44 MISG      29.79S                  
LEWISTONAUBURN FAIR      74  43  32 NW6       29.78S                  
AUGUSTA        FAIR      74  48  39 N13       29.78F                  
WATERVILLE     FAIR      72  48  42 NE8       29.76S                  
BANGOR         FAIR      73  44  35 N10G18    29.78F                  
GREENVILLE       N/A     62  41  46 NW15G23   29.80S                  
MILLINOCKET    FAIR      66  40  38 VRB7G16   29.81S                  
HOULTON        FAIR      64  39  39 NW13G21   29.79S                  
PRESQUE ISLE   FAIR      63  38  39 NW14G22   29.82S                  
FRENCHVILLE    PTSUNNY   58  35  42 N13G23    29.83R                  
CARIBOU        FAIR      63  38  39 N12G17    29.81S                  
$$

NHZ002-005-008-009-011-012-014-211800-
NEW HAMPSHIRE
  
CITY           SKY/WX    TMP DP  RH WIND       PRES   REMARKS
PORTSMOUTH     PTSUNNY   75  55  50 NW8       29.78R                  
ROCHESTER      CLOUDY    72  58  61 NW7       29.79S                  
NASHUA         FAIR      80  58  46 VRB5      29.78S                  
MANCHESTER     PTSUNNY   79  57  46 N10       29.78R                  
CONCORD        CLOUDY    73  56  54 N10       29.80S                  
LACONIA        CLOUDY    72  54  53 W8        29.81F                  
PLYMOUTH       FAIR      74  44  33 W9        29.80F                  
BERLIN         FAIR      72  43  35 N12       29.83S                  
WHITEFIELD     FAIR      72  39  30 N12G22    29.84R HAZE             
JAFFREY        PTSUNNY   77  57  50 VRB6      29.81S                  
KEENE          PTSUNNY   76  56  49 N8        29.80S                  
LEBANON        FAIR      76  46  34 NW9       29.82F                  
MT WASHINGTON  MOSUNNY   43  37  81 NW18G28     N/A                   
$$

VTZ005-007-008-211800-
VERMONT
  
CITY           SKY/WX    TMP DP  RH WIND       PRES   REMARKS
ST JOHNSBURY     N/A     69  41  36 MISG      29.83S                  
MONTPELIER     FAIR      68  47  46 NW10G16   29.89F                  
BURLINGTON     FAIR      68  40  35 N13G20    29.90R                  
$$

MAZ007-012-024-CTZ003-RIZ002-NYZ038-NYZ072-211800-
SOUTHERN NEW ENGLAND AND NY
  
CITY           SKY/WX    TMP DP  RH WIND       PRES   REMARKS
BOSTON         FAIR      78  56  46 E13       29.78R                  
WORCESTER      PTSUNNY   77  56  48 NW8       29.79F                  
NANTUCKET      CLOUDY    63  63 100 SE8       29.79F FOG              
PROVIDENCE     FAIR      77  61  57 VRB7      29.77F                  
HARTFORD       FAIR      82  55  39 N8        29.78F                  
ALBANY         FAIR      76  57  51 N10G18    29.82F                  
NEW YORK CITY  PTSUNNY   79  62  56 NE12      29.77F                  
$$

ANZ081-ANZ082-ANZ150-NHZ014-MEZ023>029-211800-
COASTAL MARINE OBSERVATIONS
  
STATION/POSITION TIME  TEMP    WIND        PRES    WAVE
                       AIR SEA DIR/SP/G            HT/PER
                 (UTC) (F)     (DEG/KT/KT) (MB)    (FT/S)
MOUNT DESERT ROC 1700   60      70/  7/  7 1008.7R
MATINICUS ROCK   1600   61      50/  8/  8 1008.4R
ISLE OF SHOALS   1600   67      60/ 12/ 12 1008.1S
JEFFREYS LEDGE   1636      60                N/A     1/ 7
$$

.............KEY..............
   WCI - WIND CHILL
   TC  - TEMPERATURE IN CELSIUS
   VSB - VISIBILITY IN MILES
   HX  - HEAT INDEX
   FAIR- INDICATES FEW OR NO CLOUDS BELOW 12,000 FT, WITH NO 
         SIGNIFICANT WEATHER AND/OR OBSTRUCTIONS TO VISIBILITY.